This demonstration page uses our WeatherBlox Daily Observations layout. Learn more.

Left ArrowRight Arrow

Hourly Observations for January 21, 2018

Temp ( °F °C ) Dew Point ( °F °C ) Humidity (%) Winds ( mph kmh ) Pressure ( in mb ) Visibility ( mi km ) Precip ( " mm )
12:15 am 00:15 Clear 36 2 32 0 87 87 S 6 9 30.15 1021 10 16.0934 0 0
12:35 am 00:35 Clear 37 3 32 0 81 81 W 5 7 30.15 1021 10 16.0934 0 0
12:55 am 00:55 Clear 36 2 32 0 87 87 SW 3 6 30.15 1021 10 16.0934 0 0
1:15 am 01:15 Clear 34 1 30 -1 87 87 S 6 9 30.15 1021 10 16.0934 0 0
1:35 am 01:35 Clear 36 2 32 0 87 87 W 5 7 30.15 1021 10 16.0934 0 0
1:55 am 01:55 Clear 36 2 32 0 87 87 NW 5 7 30.15 1021 10 16.0934 0 0
2:15 am 02:15 Clear 32 0 30 -1 93 93 Calm 30.18 1022 10 16.0934 0 0
2:35 am 02:35 Clear 34 1 30 -1 87 87 Calm 30.18 1022 10 16.0934 0 0
2:55 am 02:55 Mostly Cloudy 34 1 32 0 93 93 Calm 30.18 1022 10 16.0934 0 0
3:15 am 03:15 Cloudy 36 2 32 0 87 87 NW 3 6 30.15 1021 10 16.0934 0 0
3:35 am 03:35 Cloudy 36 2 32 0 87 87 Calm 30.15 1021 10 16.0934 0 0
3:55 am 03:55 Cloudy 36 2 32 0 87 87 Calm 30.15 1021 10 16.0934 0 0
4:15 am 04:15 Mostly Cloudy 34 1 32 0 93 93 Calm 30.18 1022 10 16.0934 0 0
4:35 am 04:35 Partly Cloudy 36 2 32 0 87 87 Calm 30.18 1022 10 16.0934 0 0
4:55 am 04:55 Partly Cloudy 34 1 30 -1 87 87 Calm 30.18 1022 10 16.0934 0 0
5:15 am 05:15 Mostly Cloudy 32 0 30 -1 93 93 WSW 5 7 30.18 1022 10 16.0934 0 0
5:35 am 05:35 Cloudy 34 1 32 0 93 93 Calm 30.18 1022 10 16.0934 0 0
5:55 am 05:55 Cloudy 36 2 32 0 87 87 Calm 30.21 1023 10 16.0934 0 0
6:15 am 06:15 Cloudy 36 2 32 0 87 87 Calm 30.21 1023 10 16.0934 0 0
6:35 am 06:35 Cloudy 36 2 32 0 87 87 SSW 3 6 30.21 1023 10 16.0934 0 0
6:55 am 06:55 Cloudy 37 3 34 1 87 87 SW 5 7 30.21 1023 10 16.0934 0 0
7:15 am 07:15 Cloudy 37 3 34 1 87 87 Calm 30.21 1023 10 16.0934 0 0
7:35 am 07:35 Cloudy 37 3 34 1 87 87 Calm 30.21 1023 10 16.0934 0 0
7:55 am 07:55 Cloudy 41 5 34 1 76 76 Calm 30.21 1023 10 16.0934 0 0
8:15 am 08:15 Cloudy 41 5 36 2 81 81 Calm 30.21 1023 10 16.0934 0 0
8:35 am 08:35 Cloudy 43 6 36 2 76 76 Calm 30.24 1024 10 16.0934 0 0
8:55 am 08:55 Cloudy 45 7 37 3 76 76 Calm 30.24 1024 10 16.0934 0 0
9:15 am 09:15 Mostly Cloudy 45 7 36 2 71 71 Calm 30.24 1024 10 16.0934 0 0
9:35 am 09:35 Cloudy 46 8 36 2 66 66 Calm 30.24 1024 10 16.0934 0 0
9:55 am 09:55 Cloudy 46 8 36 2 66 66 SE 5 7 30.24 1024 10 16.0934 0 0
10:15 am 10:15 Cloudy 46 8 36 2 66 66 Calm 30.24 1024 10 16.0934 0 0
10:35 am 10:35 Cloudy 48 9 36 2 62 62 Calm 30.27 1025 10 16.0934 0 0
10:55 am 10:55 Cloudy 50 10 37 3 62 62 Calm 30.24 1024 10 16.0934 0 0
11:15 am 11:15 Cloudy 52 11 37 3 58 58 Calm 30.24 1024 10 16.0934 0 0
11:35 am 11:35 Cloudy 52 11 37 3 58 58 Calm 30.24 1024 10 16.0934 0 0
11:55 am 11:55 Cloudy 54 12 37 3 54 54 ESE 3 6 30.18 1022 10 16.0934 0 0
12:15 pm 12:15 Cloudy 55 13 39 4 55 55 Calm 30.18 1022 10 16.0934 0 0
12:35 pm 12:35 Cloudy 57 14 41 5 55 55 ESE 3 6 30.15 1021 10 16.0934 0 0
12:55 pm 12:55 Cloudy 59 15 41 5 51 51 S 3 6 30.15 1021 10 16.0934 0 0
1:15 pm 13:15 Cloudy 59 15 43 6 55 55 S 3 6 30.15 1021 10 16.0934 0 0
1:35 pm 13:35 Cloudy 61 16 43 6 52 52 S 5 7 30.15 1021 10 16.0934 0 0
1:55 pm 13:55 Cloudy 61 16 43 6 52 52 Calm 30.12 1020 10 16.0934 0 0
2:15 pm 14:15 Cloudy 63 17 43 6 49 49 Calm 30.12 1020 10 16.0934 0 0
2:35 pm 14:35 Cloudy 63 17 43 6 49 49 Calm 30.12 1020 10 16.0934 0 0
2:55 pm 14:55 Cloudy 63 17 43 6 49 49 E 3 6 30.12 1020 10 16.0934 0 0
3:15 pm 15:15 Cloudy 63 17 45 7 52 52 Calm 30.12 1020 10 16.0934 0 0
3:35 pm 15:35 Cloudy 63 17 45 7 52 52 ESE 3 6 30.12 1020 10 16.0934 0 0
3:55 pm 15:55 Cloudy 61 16 45 7 55 55 Calm 30.12 1020 10 16.0934 0 0
4:15 pm 16:15 Cloudy 61 16 43 6 52 52 Calm 30.15 1021 10 16.0934 0 0
4:35 pm 16:35 Cloudy 59 15 43 6 55 55 ENE 5 7 30.15 1021 10 16.0934 0 0
4:55 pm 16:55 Cloudy 59 15 43 6 55 55 E 5 7 30.12 1020 10 16.0934 0 0
5:15 pm 17:15 Cloudy 57 14 43 6 59 59 Calm 30.15 1021 10 16.0934 0 0
5:35 pm 17:35 Cloudy 55 13 43 6 63 63 Calm 30.12 1020 10 16.0934 0 0
5:55 pm 17:55 Cloudy 54 12 43 6 67 67 Calm 30.15 1021 10 16.0934 0 0
6:15 pm 18:15 Partly Cloudy 54 12 43 6 67 67 Calm 30.12 1020 10 16.0934 0 0
6:35 pm 18:35 Partly Cloudy 52 11 43 6 72 72 N 7 11 30.15 1021 10 16.0934 0 0
6:55 pm 18:55 Partly Cloudy 54 12 41 5 63 63 SSE 5 7 30.12 1020 10 16.0934 0 0
7:15 pm 19:15 Partly Cloudy 48 9 39 4 71 71 Calm 30.18 1022 10 16.0934 0 0
7:35 pm 19:35 Clear 50 10 41 5 71 71 N 3 6 30.18 1022 10 16.0934 0 0
7:55 pm 19:55 Partly Cloudy 46 8 39 4 76 76 Calm 30.18 1022 10 16.0934 0 0
8:15 pm 20:15 Mostly Cloudy 45 7 39 4 81 81 Calm 30.18 1022 10 16.0934 0 0
8:30 pm 20:30 Mostly Cloudy 46 8 41 5 82 82 SSE 3 6 30.18 1022 10 16.0934 0 0
8:55 pm 20:55 Cloudy 45 7 41 5 87 87 Calm 30.18 1022 10 16.0934 0 0
9:15 pm 21:15 Cloudy 46 8 41 5 82 82 Calm 30.18 1022 10 16.0934 0 0
9:35 pm 21:35 Mostly Cloudy 45 7 41 5 87 87 Calm 30.18 1022 10 16.0934 0 0
9:55 pm 21:55 Mostly Cloudy 43 6 39 4 87 87 Calm 30.18 1022 10 16.0934 0 0
10:15 pm 22:15 Cloudy 43 6 39 4 87 87 Calm 30.18 1022 10 16.0934 0 0
10:35 pm 22:35 Cloudy 45 7 39 4 81 81 Calm 30.18 1022 10 16.0934 0 0
10:55 pm 22:55 Cloudy 43 6 37 3 81 81 Calm 30.18 1022 10 16.0934 0 0
11:15 pm 23:15 Cloudy 43 6 37 3 81 81 WSW 3 6 30.18 1022 10 16.0934 0 0
11:35 pm 23:35 Cloudy 45 7 41 5 87 87 SW 3 6 30.18 1022 10 16.0934 0 0
11:55 pm 23:55 Cloudy 45 7 43 6 93 93 SSW 9 15 30.18 1022 10 16.0934 0 0

Powered by AerisWeather